Weather History for Land O' Lakes, WI

Change the Weather History Date:

Friday, March 7, 2014

  Actual Average (KEGV) Record (KEGV)
Temperature  
Mean Temperature 22 °F -  
Max Temperature 28 °F 38 °F 50 °F (2012)
Min Temperature 15 °F 11 °F -18 °F (2008)
Degree Days  
Heating Degree Days 43    
Moisture  
Dew Point 20 °F    
Average Humidity 86    
Maximum Humidity 94    
Minimum Humidity 69    
Precipitation  
Precipitation 0.00 in - - ()
Sea Level Pressure  
Sea Level Pressure 29.85 in    
Wind  
Wind Speed 7 mph (WNW)    
Max Wind Speed 17 mph    
Max Gust Speed 24 mph    
Visibility 5 miles    
Events Snow    
Averages and records for this station are not official NWS values.
T = Trace of Precipitation, MM = Missing Value Source: NWS Daily Summary

Daily Weather History Graph

Daily Weather History Graph

Search for Another Location

Airport:

Trip Planner

Search our weather history database for the weather conditions in past years. The results will help you decide how hot, cold, wet, or windy it might be!

Date:

Astronomy

Mar. 07, 2014 Rise Set
Actual Time 6:24 AM CST 5:51 PM CST
Civil Twilight 5:54 AM CST 6:21 PM CST
Nautical Twilight 5:20 AM CST 6:56 PM CST
Astronomical Twilight 4:45 AM CST 7:31 PM CST
Moon 9:57 AM CST (3/7) 12:16 AM CST (3/7)
Length of Visible Light 12h 26m
Length of Day
11h 26m
Waxing Crescent, 42% of the Moon is Illuminated
Mar 7
Waxing Crescent
Mar 8
First Quarter
Mar 16
Full
Mar 23
Last Quarter
Mar 30
New

Hourly Weather History & Observations

Time (CST) Temp. Windchill Dew Point Humidity Pressure Visibility Wind Dir Wind Speed Gust Speed Precip Events Conditions
12:15 AM 21.6 °F 13.0 °F 12.7 °F 69% 29.81 in 10.0 mi SSW 6.9 mph - N/A   Scattered Clouds
12:35 AM 21.7 °F 11.5 °F 13.1 °F 69% 29.81 in 10.0 mi SSW 9.2 mph - N/A   Overcast
12:55 AM 22.1 °F 12.8 °F 13.8 °F 70% 29.81 in 10.0 mi SSW 8.1 mph - N/A   Overcast
1:15 AM 22.1 °F 12.8 °F 14.0 °F 71% 29.80 in 10.0 mi SSW 8.1 mph - N/A   Overcast
1:35 AM 22.1 °F 11.3 °F 14.4 °F 72% 29.80 in 10.0 mi SSW 10.4 mph 16.1 mph N/A   Overcast
1:55 AM 22.5 °F 13.2 °F 14.9 °F 73% 29.79 in 10.0 mi SSW 8.1 mph 17.3 mph N/A   Overcast
2:15 AM 22.6 °F 11.9 °F 15.4 °F 74% 29.79 in 10.0 mi SSW 10.4 mph 18.4 mph N/A   Overcast
2:35 AM 22.6 °F 11.3 °F 15.6 °F 74% 29.78 in 10.0 mi SSW 11.5 mph 17.3 mph N/A   Overcast
2:55 AM 22.8 °F 12.2 °F 16.2 °F 76% 29.77 in 10.0 mi SW 10.4 mph 16.1 mph N/A   Overcast
3:15 AM 23.0 °F 14.7 °F 16.5 °F 76% 29.80 in 10.0 mi WSW 6.9 mph - N/A   Overcast
3:35 AM 23.0 °F 15.8 °F 16.7 °F 77% 29.81 in 10.0 mi WSW 5.8 mph - N/A   Overcast
3:55 AM 23.4 °F 15.2 °F 17.1 °F 77% 29.80 in 10.0 mi SW 6.9 mph - N/A   Overcast
4:15 AM 23.4 °F 16.2 °F 17.2 °F 77% 29.79 in 10.0 mi SSW 5.8 mph - N/A   Overcast
4:35 AM 23.4 °F 18.9 °F 17.4 °F 78% 29.78 in 10.0 mi SSW 3.5 mph - N/A   Overcast
4:55 AM 23.5 °F 15.4 °F 18.1 °F 80% 29.77 in 5.0 mi SSW 6.9 mph - N/A Snow Light Snow
5:15 AM 23.4 °F 16.2 °F 19.0 °F 84% 29.77 in 7.0 mi SW 5.8 mph - N/A Snow Light Snow
5:35 AM 23.0 °F 18.4 °F 19.4 °F 86% 29.77 in 4.0 mi SW 3.5 mph - N/A Snow Light Snow
5:55 AM 23.4 °F 16.2 °F 20.1 °F 87% 29.76 in 5.0 mi SSW 5.8 mph - N/A Snow Light Snow
6:15 AM 23.5 °F 17.6 °F 20.7 °F 89% 29.75 in 3.0 mi SSW 4.6 mph - N/A Snow Light Snow
6:35 AM 23.9 °F 18.0 °F 21.2 °F 89% 29.75 in 2.5 mi SW 4.6 mph - N/A Snow Light Snow
6:55 AM 24.1 °F 19.7 °F 21.6 °F 90% 29.75 in 3.0 mi SW 3.5 mph - N/A Snow Light Snow
7:15 AM 24.3 °F 19.9 °F 21.9 °F 91% 29.76 in 4.0 mi SW 3.5 mph - N/A   Overcast
7:35 AM 24.3 °F 19.9 °F 21.7 °F 90% 29.76 in 4.0 mi SW 3.5 mph - N/A Snow Light Snow
7:55 AM 24.4 °F 18.6 °F 21.9 °F 90% 29.77 in 4.0 mi SW 4.6 mph - N/A Snow Light Snow
8:15 AM 24.6 °F 18.8 °F 21.9 °F 89% 29.77 in 3.0 mi SW 4.6 mph - N/A Snow Light Snow
8:35 AM 24.8 °F 19.1 °F 22.1 °F 89% 29.76 in 4.0 mi SSW 4.6 mph - N/A   Overcast
8:55 AM 24.6 °F 20.3 °F 21.9 °F 89% 29.76 in 3.0 mi SW 3.5 mph - N/A Snow Light Snow
9:15 AM 25.0 °F - 22.5 °F 90% 29.75 in 2.0 mi Calm Calm - N/A Snow Light Snow
9:35 AM 25.3 °F 21.1 °F 22.8 °F 90% 29.75 in 2.5 mi SSW 3.5 mph - N/A   Overcast
9:55 AM 25.7 °F 19.0 °F 23.4 °F 91% 29.76 in 2.5 mi SW 5.8 mph - N/A   Overcast
10:15 AM 25.7 °F 19.0 °F 23.7 °F 92% 29.78 in 2.0 mi SW 5.8 mph - N/A Snow Light Snow
10:35 AM 26.1 °F 21.9 °F 23.9 °F 92% 29.77 in 2.5 mi SSW 3.5 mph - N/A Snow Light Snow
10:55 AM 26.2 °F - 23.9 °F 91% 29.77 in 2.5 mi Calm Calm - N/A Snow Light Snow
11:15 AM 26.6 °F - 24.3 °F 91% 29.76 in 3.0 mi Calm Calm - N/A   Overcast
11:35 AM 27.0 °F 23.0 °F 24.1 °F 89% 29.76 in 4.0 mi WSW 3.5 mph - N/A   Overcast
11:55 AM 27.3 °F 20.9 °F 24.8 °F 90% 29.77 in 3.0 mi WNW 5.8 mph - N/A   Overcast
12:15 PM 27.5 °F 22.2 °F 25.5 °F 92% 29.76 in 1.5 mi NW 4.6 mph - N/A Snow Light Snow
12:35 PM 27.9 °F 22.6 °F 26.1 °F 93% 29.77 in 1.2 mi WNW 4.6 mph - N/A   Overcast
12:55 PM 28.0 °F 22.8 °F 26.1 °F 92% 29.76 in 2.0 mi NNW 4.6 mph - N/A   Overcast
1:15 PM 28.2 °F 21.0 °F 26.2 °F 92% 29.77 in 2.0 mi WNW 6.9 mph - N/A   Overcast
1:35 PM 28.2 °F 24.4 °F 26.2 °F 92% 29.78 in 2.0 mi NW 3.5 mph - N/A   Overcast
1:55 PM 28.4 °F 22.2 °F 26.6 °F 93% 29.79 in 2.0 mi NNW 5.8 mph - N/A   Overcast
2:15 PM 28.4 °F 22.2 °F 26.6 °F 93% 29.79 in 1.8 mi NNW 5.8 mph - N/A   Overcast
2:35 PM 28.2 °F 20.2 °F 26.6 °F 94% 29.80 in 2.0 mi NNW 8.1 mph - N/A   Overcast
2:55 PM 28.2 °F 21.0 °F 26.6 °F 94% 29.81 in 2.0 mi NNW 6.9 mph - N/A   Overcast
3:15 PM 28.2 °F 19.5 °F 26.4 °F 93% 29.82 in 2.0 mi NNW 9.2 mph - N/A   Overcast
3:35 PM 28.0 °F 20.8 °F 26.4 °F 94% 29.83 in 1.8 mi NNW 6.9 mph - N/A   Overcast
3:55 PM 27.9 °F 20.6 °F 25.7 °F 92% 29.84 in 2.5 mi NNW 6.9 mph - N/A   Overcast
4:15 PM 27.5 °F 18.0 °F 25.2 °F 91% 29.85 in 3.0 mi North 10.4 mph - N/A   Overcast
4:35 PM 27.1 °F 18.2 °F 25.0 °F 92% 29.87 in 3.0 mi NNW 9.2 mph 16.1 mph N/A   Overcast
4:55 PM 27.1 °F 18.2 °F 24.8 °F 91% 29.89 in 4.0 mi NNW 9.2 mph - N/A   Overcast
5:15 PM 27.0 °F 16.7 °F 24.3 °F 90% 29.89 in 5.0 mi NNW 11.5 mph - N/A   Overcast
5:35 PM 26.6 °F 17.5 °F 24.4 °F 92% 29.91 in 3.0 mi North 9.2 mph - N/A   Overcast
5:55 PM 26.6 °F 18.2 °F 24.4 °F 92% 29.92 in 4.0 mi North 8.1 mph - N/A   Overcast
6:15 PM 26.4 °F 18.0 °F 24.6 °F 93% 29.93 in 3.0 mi North 8.1 mph - N/A   Overcast
6:35 PM 26.1 °F 15.0 °F 23.9 °F 92% 29.94 in 5.0 mi North 12.7 mph 18.4 mph N/A   Overcast
6:55 PM 24.6 °F 12.7 °F 23.2 °F 94% 29.96 in 4.0 mi North 13.8 mph 17.3 mph N/A Snow Light Snow
7:15 PM 23.2 °F 9.8 °F 20.1 °F 88% 29.97 in 7.0 mi North 16.1 mph 24.2 mph N/A Snow Light Snow
7:35 PM 22.5 °F 8.9 °F 18.3 °F 84% 29.99 in 10.0 mi North 16.1 mph 24.2 mph N/A   Overcast
7:55 PM 21.6 °F 9.9 °F 17.4 °F 84% 30.00 in 10.0 mi North 11.5 mph 24.2 mph N/A   Overcast
8:15 PM 21.0 °F 9.3 °F 16.9 °F 84% 30.01 in 10.0 mi North 11.5 mph 19.6 mph N/A Snow Light Snow
8:35 PM 20.5 °F 5.9 °F 16.0 °F 83% 30.02 in 10.0 mi North 17.3 mph 20.7 mph N/A   Overcast
8:55 PM 20.3 °F 9.0 °F 16.0 °F 83% 30.03 in 7.0 mi North 10.4 mph - N/A Snow Light Snow
9:15 PM 19.9 °F 7.9 °F 15.3 °F 82% 30.04 in 5.0 mi NNE 11.5 mph 18.4 mph N/A Snow Light Snow
9:35 PM 19.4 °F 9.5 °F 15.3 °F 84% 30.05 in 4.0 mi North 8.1 mph - N/A Snow Light Snow
9:55 PM 19.4 °F 10.4 °F 15.6 °F 85% 30.06 in 4.0 mi North 6.9 mph - N/A Snow Light Snow
10:15 PM 19.2 °F 8.4 °F 15.6 °F 86% 30.06 in 4.0 mi North 9.2 mph - N/A Snow Light Snow
10:35 PM 18.5 °F 5.5 °F 14.0 °F 83% 30.07 in 7.0 mi North 12.7 mph 16.1 mph N/A Snow Light Snow
10:55 PM 18.1 °F 6.3 °F 13.1 °F 81% 30.08 in 5.0 mi North 10.4 mph 16.1 mph N/A Snow Light Snow
11:15 PM 17.4 °F 7.1 °F 12.6 °F 81% 30.08 in 7.0 mi North 8.1 mph - N/A Snow Light Snow
11:35 PM 16.5 °F 6.0 °F 12.2 °F 83% 30.08 in 7.0 mi North 8.1 mph 16.1 mph N/A Snow Light Snow
11:55 PM 15.8 °F 6.1 °F 11.3 °F 82% 30.09 in 7.0 mi North 6.9 mph - N/A Snow Light Snow